Weather History for Mazar-I-Sharif, Afghanistan

Change the Weather History Date:

Thursday, November 15, 2012

  Actual Average Record
Temperature  
Mean Temperature 60 °F -  
Max Temperature 73 °F 56 °F - ()
Min Temperature 48 °F 35 °F - ()
Degree Days  
Heating Degree Days 4    
Growing Degree Days 10 (Base 50)    
Moisture  
Dew Point 41 °F    
Average Humidity 54    
Maximum Humidity 88    
Minimum Humidity 29    
Precipitation  
Precipitation 0.00 in 0.02 in - ()
Sea Level Pressure  
Sea Level Pressure 30.01 in    
Wind  
Wind Speed 8 mph ()    
Max Wind Speed 32 mph    
Max Gust Speed -    
Visibility 3.7 miles    
Events Rain    
T = Trace of Precipitation, MM = Missing Value Source: Averaged Metar Reports

Daily Weather History Graph

Daily Weather History Graph

Search for Another Location

Airport:

Trip Planner

Search our weather history database for the weather conditions in past years. The results will help you decide how hot, cold, wet, or windy it might be!

Date:

Astronomy

Nov. 15, 2012 Rise Set
Actual Time 6:39 AM AFT 4:52 PM AFT
Civil Twilight 6:11 AM AFT 5:19 PM AFT
Nautical Twilight 5:40 AM AFT 5:50 PM AFT
Astronomical Twilight 5:09 AM AFT 6:21 PM AFT
Moon 8:04 AM AFT (11/15) 6:17 PM AFT (11/15)
Length of Visible Light 11h 07m
Length of Day
10h 12m
Waxing Crescent, 3% of the Moon is Illuminated
Nov 15
Waxing Crescent
Nov 20
First Quarter
Nov 28
Full
Dec 6
Last Quarter
Dec 13
New

Hourly Weather History & Observations

Time (AFT) Temp. Dew Point Humidity Pressure Visibility Wind Dir Wind Speed Gust Speed Precip Events Conditions
12:20 AM 50.0 °F 41.0 °F 71% 29.98 in 6.2 mi West 1.2 mph - N/A   Scattered Clouds
1:20 AM 50.0 °F 41.0 °F 71% 29.95 in 6.2 mi East 3.5 mph - N/A   Scattered Clouds
2:20 AM 51.8 °F 41.0 °F 67% 29.92 in 6.2 mi WSW 3.5 mph - N/A   Scattered Clouds
3:20 AM 51.8 °F 41.0 °F 67% 29.95 in 6.2 mi West 1.2 mph - N/A   Scattered Clouds
5:20 AM 50.0 °F 41.0 °F 71% 29.89 in 6.2 mi ESE 2.3 mph - N/A   Scattered Clouds
6:20 AM 48.2 °F 39.2 °F 71% 29.92 in 6.2 mi West 6.9 mph - N/A   Scattered Clouds
7:20 AM 51.8 °F 41.0 °F 67% 29.92 in 5.6 mi ESE 3.5 mph - N/A   Scattered Clouds
8:20 AM 59.0 °F 39.2 °F 48% 29.92 in 5.0 mi ENE 2.3 mph - N/A   Scattered Clouds
9:20 AM 59.0 °F 41.0 °F 51% 29.95 in 3.7 mi West 6.9 mph - N/A   Mostly Cloudy
10:20 AM 64.4 °F 41.0 °F 42% 29.98 in 5.0 mi South 2.3 mph - N/A   Mostly Cloudy
11:20 AM 68.0 °F 39.2 °F 35% 29.98 in 4.3 mi West 8.1 mph - N/A   Mostly Cloudy
12:20 PM 69.8 °F 37.4 °F 31% 29.95 in 3.7 mi West 19.6 mph - N/A   Mostly Cloudy
1:05 PM 73.4 °F 39.2 °F 29% 29.95 in 1.9 mi WNW 18.4 mph - N/A   Widespread Dust
1:20 PM 71.6 °F 39.2 °F 31% 29.95 in 1.2 mi WNW 19.6 mph - N/A   Widespread Dust
2:09 PM 69.8 °F 39.2 °F 33% 29.98 in 0.7 mi West 21.9 mph - N/A   Heavy Blowing Widespread Dust
2:20 PM 68.0 °F 39.2 °F 35% 29.98 in 0.7 mi West 23.0 mph - N/A   Heavy Blowing Widespread Dust
3:20 PM 68.0 °F 37.4 °F 33% 30.01 in 0.7 mi West 32.2 mph - N/A   Heavy Blowing Widespread Dust
4:20 PM 62.6 °F 39.2 °F 42% 30.04 in 0.7 mi West 20.7 mph - N/A   Heavy Blowing Widespread Dust
5:20 PM 60.8 °F 39.2 °F 45% 30.06 in 1.0 mi West 19.6 mph - N/A   Heavy Blowing Widespread Dust
5:48 PM 60.8 °F 41.0 °F 48% 30.06 in 1.9 mi West 19.6 mph - N/A   Widespread Dust
6:15 PM 60.8 °F 42.8 °F 52% 30.09 in 3.1 mi West 15.0 mph - N/A   Light Blowing Widespread Dust
6:20 PM 60.8 °F 42.8 °F 52% 30.09 in 3.1 mi West 16.1 mph - N/A   Light Blowing Widespread Dust
7:20 PM 60.8 °F 44.6 °F 55% 30.09 in 3.7 mi SW 8.1 mph - N/A   Mostly Cloudy
8:20 PM 60.8 °F 44.6 °F 55% 30.09 in 5.0 mi WSW 4.6 mph - N/A   Mostly Cloudy
9:20 PM 55.4 °F 48.2 °F 77% 30.15 in 5.0 mi WNW 8.1 mph - N/A Rain Light Rain
10:20 PM 55.4 °F 50.0 °F 82% 30.18 in 3.7 mi West 6.9 mph - N/A Rain Light Rain
11:20 PM 53.6 °F 50.0 °F 88% 30.18 in 3.7 mi WSW 5.8 mph - N/A Rain Light Rain